sat.trackr.live / text

‹ back to catalog

GLOBALSTAR M095

NORAD 39077 · 2013-005F

PAYLOAD ACTIVE UNKNOWN

§ Identity

Operator
Country
GLOB
Launch date
2013-02-06
Launch site
TYMSC
Launch vehicle
Mass (kg)
RCS (m²)
4.87

Purposes: comms

External: N2YO · Heavens-Above · Gunter

§ Orbital elements

Epoch: 2026-09-19T07:11:00.205152Z

Period
114.08 min
Inclination
52.0112°
Eccentricity
0.0000926
Mean motion
12.62264457 rev/d
Perigee alt
1,412.9 km
Apogee alt
1,414.3 km
Semi-major
7,791.7 km
B*
3.5649e-6
RAAN
354.7499°
Arg perigee
125.2341°
Mean anomaly
234.8613°
Rev number
62,775

§ Raw data

GLOBALSTAR M0951 39077U 13005F   26262.29930793 -.00000103  00000+0  35649-5 0  99912 39077  52.0112 354.7499 0000926 125.2341 234.8613 12.62264457627758

JSON: /api/v1/satellites/39077 · /tle

For live sub-satellite position, see the globe view (requires WebGL).

§ Visibility from observer

Set your observer location to see the next 7 days of passes ≥ 10°. The values pass through the URL so the page stays shareable.

No JS? Fill the form by hand. The geolocation button needs JavaScript.